Flag for Algeria Weather past 2 weeks in Oran, Algeria

Now
70 °F

Sunny.


Feels Like: 70 °F
Forecast: 53 / 69 °F
Wind: 6 mph from North

Location: Oran / Es Senia

Current Time: Mar 3, 2015 at 4:15:17 PM

Latest Report: Mar 3, 2015 at 3:30 PM


Visibility: 10 mi

Pressure: 30.21 "Hg

Humidity: 57%

Dew point: 54 °F

Location of OranLocation

Historic Weather in Oran — Graph

°F

Oran temperature yesterday

Maximum temperature yesterday: 75 °F (at 3:00 PM)
Minimum temperature yesterday: 46 °F (at 7:00 AM)
Average temperature yesterday: 59 °F

Past Weeks' High & Low Weather Summary

 TemperatureHumidityPressure
High75 °F (Mar 2, 3:00 PM)100% (Feb 21, 1:00 AM)30.33 "Hg (Feb 21, 1:00 AM)
Low46 °F (Mar 2, 7:00 AM)34% (Feb 25, 11:00 AM)29.74 "Hg (Feb 21, 6:30 PM)
Average56 °F77%30.15 "Hg
* Reported Feb 16 3:00 PM — Mar 3 3:00 PM, Oran, Weather by CustomWeather, © 2015

Note: Actual official high and low records may vary slightly from our data, if they occured in-between our weather recording intervals... More about our weather records

Advertising

Oran weather history for previous 24 hours

 ConditionsComfort  
Time TempWeatherWind HumidityBarometerVisibility
3:00 PM
Tue, Mar 3
70 °FSunny.7 mph57%30.21 "Hg10 mi
2:30 PM70 °FSunny.5 mph57%30.24 "Hg10 mi
2:00 PM70 °FSunny.5 mph57%30.24 "Hg10 mi
1:30 PM70 °FSunny.5 mph57%30.24 "Hg10 mi
1:00 PM70 °FSunny.5 mph57%30.24 "Hg10 mi
12:30 PM70 °FSunny.No wind60%30.27 "Hg10 mi
12:00 PM68 °FSunny.5 mph64%30.27 "Hg10 mi
11:30 AM66 °FSunny.5 mph68%30.27 "Hg10 mi
11:00 AM63 °FSunny.2 mph77%30.27 "Hg10 mi
10:30 AM61 °FSunny.2 mph83%30.27 "Hg10 mi
10:00 AM57 °FSunny.2 mph88%30.27 "Hg10 mi
9:30 AM54 °FSunny.2 mph88%30.24 "Hg10 mi
9:00 AM54 °FSunny.2 mph88%30.24 "Hg10 mi
8:30 AM48 °FSunny.2 mph100%30.24 "Hg10 mi
8:00 AM48 °FSunny.2 mph100%30.24 "Hg10 mi
7:30 AM46 °FSunny.5 mph93%30.21 "Hg10 mi
7:00 AM50 °FClear.No wind94%30.21 "Hg10 mi
6:30 AM50 °FClear.No wind94%30.21 "Hg10 mi
6:00 AM50 °FClear.5 mph94%30.21 "Hg10 mi
5:30 AM50 °FClear.3 mph94%30.24 "Hg10 mi
5:00 AM50 °FClear.5 mph94%30.24 "Hg10 mi
4:30 AM50 °FClear.No wind94%30.24 "Hg10 mi
3:30 AM52 °FClear.5 mph94%30.24 "Hg10 mi
3:00 AM52 °FClear.3 mph94%30.24 "Hg10 mi
2:30 AM54 °FClear.3 mph88%30.24 "Hg10 mi
2:00 AM54 °FClear.3 mph88%30.24 "Hg10 mi
1:30 AM54 °FClear.3 mph88%30.24 "Hg10 mi
1:00 AM54 °FClear.1 mph88%30.24 "Hg10 mi
12:30 AM54 °FClear.2 mph88%30.24 "Hg10 mi
12:00 AM55 °FClear.2 mph82%30.24 "Hg10 mi
11:30 PM
Mon, Mar 2
55 °FClear.2 mph82%30.24 "Hg10 mi
11:00 PM55 °FClear.No wind82%30.24 "Hg10 mi
10:30 PM55 °FClear.No wind88%30.24 "Hg10 mi
10:00 PM57 °FClear.No wind82%30.24 "Hg10 mi
9:30 PM57 °FClear.No wind77%30.24 "Hg10 mi
9:00 PM59 °FClear.No wind72%30.24 "Hg10 mi
8:30 PM59 °FClear.3 mph68%30.24 "Hg10 mi
8:00 PM61 °FClear.3 mph63%30.24 "Hg10 mi
7:30 PM63 °FClear.5 mph68%30.21 "Hg10 mi
7:00 PM64 °FClear.7 mph64%30.21 "Hg10 mi
6:30 PM66 °FSunny.6 mph60%30.21 "Hg10 mi
6:00 PM66 °FSunny.9 mph60%30.21 "Hg10 mi
5:30 PM68 °FSunny.9 mph56%30.21 "Hg10 mi
5:00 PM68 °FSunny.7 mph56%30.18 "Hg10 mi
4:30 PM70 °FSunny.8 mph57%30.21 "Hg10 mi
4:00 PM70 °FSunny.10 mph57%30.21 "Hg10 mi
Weather by CustomWeather, © 2015

See weather overviewHow to use our weather pages